{"data":{"norad_id":44703,"epoch":"2026-09-20T04:25:54.559200Z","epoch_age_seconds":87586,"freshness":"FRESH","line1":"1 44703U 19072A   26263.18465925  .00002572  00000+0  11758-3 0  9996","line2":"2 44703  97.5622 324.2300 0020009  77.3053 283.0417 15.21312906382087","mean_motion":15.21312906,"eccentricity":0.0020009,"inclination_deg":97.5622,"raan_deg":324.23,"arg_perigee_deg":77.3053,"mean_anomaly_deg":283.0417,"bstar":0.00011758,"rev_number":38208,"period_min":94.655083403335,"perigee_km":488.11319809805,"apogee_km":515.64564781945,"semimajor_km":6880.0164229587,"source":"CELESTRAK","updated_at":"2026-09-20T09:00:14.536586Z"}}